Hourly Data Report for August 02, 2017

All times are specified in Local Standard Time (LST). Add 1 hour to adjust for Daylight Saving Time where and when it is observed.

ST. STEPHEN
NEW BRUNSWICK

45°12'36.600" N
67°15'10.300" W
26.10 m
8104935
71607
WSS

Download Data

Hourly Data (August 2017)
Hourly Data Report for August 2, 2017
Temp Definition
°C
Dew Point Temp Definition
°C
Rel Hum Definition
%
Wind Dir Definition
10's deg

Wind Spd Definition
km/h
Visibility Definition
km
Stn Press Definition
kPa
Hmdx Definition


Wind Chill Definition


Weather Definition


TIME
00:00 13.4 12.1 92   0   101.43     LegendNANA
01:00 12.4 11.4 94   0   101.43     LegendNANA
02:00 12.1 11.3 95   0   101.44     LegendNANA
03:00 11.3 10.5 95   0   101.46     LegendNANA
04:00 10.5 9.7 95   0   101.47     LegendNANA
05:00 9.8 9.1 96   0   101.49     LegendNANA
06:00 10.4 9.8 96 0 1   101.54     LegendNANA
07:00 14.0 12.1 88   0   101.58     LegendNANA
08:00 18.2 14.3 78 9 6   101.61     LegendNANA
09:00 21.8 15.0 65 11 6   101.61 26   LegendNANA
10:00 24.5 15.2 56 9 6   101.61 29   LegendNANA
11:00 26.2 15.1 50 8 8   101.58 30   LegendNANA
12:00 28.5 15.4 45 10 9   101.54 33   LegendNANA
13:00 29.1 15.4 43 11 12   101.51 33   LegendNANA
14:00 28.4 15.8 46 10 13   101.51 33   LegendNANA
15:00 26.4 16.0 53 11 13   101.48 31   LegendNANA
16:00 29.4 14.2 40 18 15   101.44 33   LegendNANA
17:00 28.8 14.9 43 17 17   101.44 33   LegendNANA
18:00 26.7 13.5 44 18 17   101.47 30   LegendNANA
19:00 24.4 14.4 54 17 10   101.49 28   LegendNANA
20:00 22.1 15.4 66 14 3   101.54 26   LegendNANA
21:00 19.7 15.0 74 17 2   101.64     LegendNANA
22:00 17.9 14.8 82 11 3   101.66     LegendNANA
23:00 16.9 15.4 91 13 4   101.64     LegendNANA

Notes on Data Quality.

Legend

  • E = Estimated
  • M = Missing
  • NA = Not Available
  • ‡ = Partner data that is not subject to review by the National Climate Archives
Date modified: